This is the latest recevied weather packets stored in our database for station/object N4BBA. If no packets are shown the sender has not sent any weather packets the latest 10 day(s).
| Time | Temp. | Humidity | Pressure | Rain* | Wind** | Luminosity | Snow |
|---|---|---|---|---|---|---|---|
| 1778115178 | 23.33° C | 68% | 1011.6 hPa | 0 mm | - | 0 W/m² | - |
| 1778114875 | 22.78° C | 68% | 1011.5 hPa | 0 mm | - | 0 W/m² | - |
| 1778114573 | 23.33° C | 67% | 1011.5 hPa | 0 mm | - | 0 W/m² | - |
| 1778114269 | 23.89° C | 66% | 1011.2 hPa | 0 mm | - | 0 W/m² | - |
| 1778113964 | 23.89° C | 66% | 1011.2 hPa | 0 mm | - | 0 W/m² | - |
| 1778113660 | 23.89° C | 66% | 1011.2 hPa | 0 mm | - | 0 W/m² | - |
| 1778113356 | 23.89° C | 65% | 1011.2 hPa | 0 mm | - | 0 W/m² | - |
| 1778113053 | 23.89° C | 65% | 1011.2 hPa | 0 mm | - | 0 W/m² | - |
| 1778112751 | 23.89° C | 64% | 1011.3 hPa | 0 mm | - | 1 W/m² | - |
| 1778112447 | 24.44° C | 63% | 1011.4 hPa | 0 mm | - | 2 W/m² | - |
| 1778112142 | 24.44° C | 63% | 1011.3 hPa | 0 mm | - | 3 W/m² | - |
| 1778111840 | 25° C | 62% | 1011.1 hPa | 0 mm | - | 6 W/m² | - |
| 1778111535 | 25° C | 62% | 1010.9 hPa | 0 mm | - | 8 W/m² | - |
| 1778111232 | 25° C | 61% | 1011 hPa | 0 mm | - | 11 W/m² | - |
| 1778110930 | 25° C | 61% | 1011 hPa | 0 mm | - | 12 W/m² | - |
| 1778110627 | 25.56° C | 60% | 1010.9 hPa | 0 mm | - | 13 W/m² | - |
| 1778110323 | 25.56° C | 60% | 1011.1 hPa | 0 mm | - | 15 W/m² | - |
| 1778110020 | 25.56° C | 60% | 1011.1 hPa | 0 mm | - | 20 W/m² | - |
| 1778109715 | 25.56° C | 59% | 1011.1 hPa | 0 mm | - | 28 W/m² | - |
| 1778109412 | 26.11° C | 59% | 1010.9 hPa | 0 mm | - | 38 W/m² | - |
| 1778109111 | 26.11° C | 58% | 1010.9 hPa | 0 mm | - | 67 W/m² | - |
| 1778108807 | 26.11° C | 59% | 1011.1 hPa | 0 mm | - | 78 W/m² | - |
| 1778108504 | 26.11° C | 59% | 1011 hPa | 0 mm | - | 69 W/m² | - |
| 1778108200 | 26.11° C | 59% | 1011 hPa | 0 mm | - | 106 W/m² | - |
| 1778107897 | 26.11° C | 59% | 1010.8 hPa | 0 mm | - | 58 W/m² | - |
* Rain latest hour (hover to see other rain measurements)
** Current wind speed in m/s (hover to see current wind gust speed)